Location: Liscomb Game Sanctuary
(45.1633°N, 62.5575°W)
Time: 19:42:09
(UTC-03:00)

Cosmos 1812 - Pass Details

Date: 22 February 2018
Orbit: 519 x 522 km, 82.5° (Epoch: 17 June)

Event Time Altitude Azimuth Distance (km) Brightness Sun altitude
Rises 18:37:14 0° 351° (N) 2,662 6.4 -9.4°
Reaches altitude 10° 18:39:22 10° 351° (N) 1,769 5.5 -9.8°
Maximum altitude 18:43:16 87° 261° (W) 530 2.7 -10.5°
Drops below altitude 10° 18:47:07 10° 174° (S) 1,755 5.4 -11.2°
Sets 18:49:14 0° 174° (S) 2,638 6.3 -11.5°
